SCP
0 0 0 0 0 0 0 0 0 0 0 0 0 0 0 0 0 0 0 0 0 0 0 0 0 0 0 0 0 0 0 0 0 0 0 0 0 0 0 0 0 0 0 0 0 0 0 0 0 0 0 0 0 0
0 0 0 0 0 0 0 0 0 0 0 0 0 0 0 0 0 0 0 0 0 0 0 0 0 0 0 0 0 0 0 0 0 0 0 0 0 0 0 0 0 0 0 0 0 0 0 0 0 0 0 0 0 0
0 0 0 0 0 0 0 0 0 0 0 0 0 0 0 0 0 0 0 0 0 0 0 0 0 0 0 0 0 0 0 0 0 0 0 0 0 0 0 0 0 0 0 0 0 0 -0 0 0 0 0 0 0 0
0 0 0 0 0 0 0 0 0 0 0 0 0 0 0 0 0 0 0 0 0 0 0 0 0 0 0 0 0 0 0 0 0 0 0 0 0 0 0 0 0 0 0 0 0 0 0 0 0 0 0 0 0 0
0 0 0 0 0 0 0 0 0 0 0 0 0 0 0 0 0 0 0 0 0 0 0 0 0 0 0 0 0 0 0 0 0 0 0 0 0 0 0 0 -0 0 0 0 0 0 0 0 0 0 0 0 0 0
0 0 0 0 0 0 0 0 0 0 0 0 0 0 0 0 0 0 0 0 0 0 0 0 0 0 0 0 0 0 0 0 0 0 0 0 0 0 0 0 0 0 0 0 0 0 0 0 0 0 0 0 0 0
0 0 0 0 0 0 0 0 0 0 0 0 0 0 0 0 0 0 0 0 0 0 0 0 0 0 0 0 0 0 0 0 0 0 0 0 0 0 0 0 0 0 0 0 0 0 0 0 0 0 0 0 0 0
0 0 0 0 0 0 0 0 0 0 0 0 0 0 0 0 0 0 0 0 0 0 0 0 0 0 0 0 0 0 0 0 0 0 0 0 0 0 0 0 0 0 0 0 0 0 0 0 0 0 0 0 0 0
0 0 0 0 0 0 0 0 0 0 0 0 0 0 0 0 0 0 0 0 0 0 0 0 0 0 0 0 0 0 0 0 0 0 0 0 0 0 0 0 0 0 0 0 0 0 0 0 0 0 0 0 0 0
0 0 0 0 0 0 0 0 0 0 0 0 0 0 0 0 0 0 0 0 0 0 0 0 0 0 0 0 0 0 0 0 0 0 0 0 0 -0 0 0 0 0 0 0 0 0 0 0 0 0 0 0 0 0
0 0 0 0 0 0 0 0 0 0 0 0 0 0 0 0 0 0 0 0 0 0 0 0 0 0 0 0 0 0 0 0 0 0 0 0 0 0 0 0 0 0 0 0 0 0 0 0 0 0 0 0 0 0
0 0 0 0 0 0 0 0 0 0 0 0 0 0 0 0 0 0 0 0 0 0 0 0 0 0 0 0 0 0 0 0 0 0 0 0 0 0 0 0 0 0 0 0 0 0 0 0 0 0 0 0 0 0
0 0 0 0 0 0 0 0 0 0 0 0 0 0 0 0 0 0 0 0 0 0 0 0 0 0 0 0 0 0 0 0 0 0 0 0 0 0 0 0 0 0 0 0 0 0 0 0 0 0 0 0 0 0
0 0 0 0 0 0 0 0 0 0 0 0 0 0 0 0 0 0 0 0 0 0 0 0 0 0 0 0 0 0 0 0 0 0 0 0 0 0 0 0 0 0 0 0 0 0 0 0 0 0 0 0 0 0
0 0 0 0 0 0 0 0 0 0 0 0 0 0 0 0 0 0 0 0 0 0 0 0 0 0 0 0 0 0 0 0 0 0 0 0 0 0 0 0 0 0 0 0 0 0 0 0 0 0 0 0 0 0
0 0 0 0 0 0 0 0 0 0 0 0 0 0 0 0 0 0 0 0 0 0 0 0 0 0 0 0 0 0 0 0 0 0 0 0 0 0 0 0 0 0 0 0 0 0 0 0 0 0 0 0 0 0
0 0 0 0 0 0 0 0 0 0 0 0 0 0 0 0 0 0 0 0 0 0 0 0 0 0 0 0 0 0 0 0 0 0 0 0 0 0 0 0 0 0 0 0 0 0 0 0 0 0 0 0 0 0
0 0 0 0 0 0 0 0 0 0 0 0 0 0 0 0 0 0 0 0 0 0 0 0 0 0 0 0 0 0 0 0 0 0 0 0 0 0 0 0 0 0 0 0 0 0 0 0 0 0 0 0 0 0
0 0 0 0 0 0 0 0 0 0 0 0 0 0 0 0 0 0 0 0 0 0 0 0 0 0 0 0 0 0 0 0 0 0 0 0 0 0 0 0 0 0 0 0 0 0 0 0 0 0 0 0 0 0
0 0 0 0 0 0 0 0 0 0 0 0 0 0 0 0 0 0 0 0 0 0 0 0 0 0 0 0 0 0 0 0 0 0 0 0 0 0 0 0 0 0 0 0 0 0 0 0 0 0 0 0 0 0
0 0 0 0 0 0 0 0 0 0 0 0 0 0 0 0 0 0 0 0 0 0 0 0 0 0 0 -0 -0 -0 -0 -0 -0 0 0 0 0 0 0 0 0 0 0 0 0 0 0 0 0 0 0 0 0 0
0 0 0 0 0 0 0 0 0 0 0 0 0 0 0 0 0 0 0 0 0 0 0 0 0 0 0 0 0 0 0 0 0 0 0 0 0 0 0 0 0 0 0 0 0 0 0 0 0 0 0 0 0 0
0 0 0 0 0 0 0 0 0 0 0 0 0 0 0 0 0 0 0 0 0 0 0 0 0 0 0 0 0 0 0 0 0 0 0 0 0 0 0 0 0 0 0 0 0 0 0 0 0 0 0 0 0 0
0 0 0 0 0 0 0 0 0 0 0 0 0 0 0 0 0 0 0 0 0 0 0 0 0 0 0 0 0 0 0 0 0 0 0 0 0 0 0 0 0 0 0 0 0 0 0 0 0 0 0 0 0 0
0 0 0 0 0 0 0 0 0 0 0 0 0 0 0 0 0 0 0 0 0 0 0 0 0 0 0 0 0 0 0 0 0 0 0 0 0 0 0 0 0 0 0 0 0 0 0 0 0 0 0 0 0 0
0 0 0 0 0 0 0 0 0 0 0 0 0 0 0 0 0 0 0 0 0 0 0 0 0 0 0 0 0 0 0 0 0 0 0 0 0 0 0 0 0 0 0 0 0 0 0 0 0 0 0 0 0 0
0 0 0 0 0 0 0 0 0 0 0 0 0 0 0 0 0 0 0 0 0 0 0 0 0 0 0 0 0 0 0 0 0 0 0 0 0 0 0 0 0 0 0 0 0 0 0 0 0 0 0 0 0 0
0 0 0 0 0 0 0 0 0 0 0 0 0 0 0 0 0 0 0 0 0 0 0 0 0 0 0 0 0 0 0 0 0 0 0 0 0 0 0 0 0 0 0 0 0 0 0 0 0 0 0 0 0 0
0 0 0 0 0 0 0 0 0 0 0 0 0 0 0 0 0 0 0 0 0 0 0 0 0 0 0 0 0 0 0 0 0 0 0 0 0 0 0 0 0 0 0 0 0 0 0 0 0 0 0 0 0 0
0 0 0 0 0 0 0 0 0 0 0 0 0 0 0 0 0 0 0 0 0 0 0 0 0 0 0 0 0 0 0 0 0 0 0 0 0 0 0 0 0 0 0 0 0 0 0 0 0 0 0 0 0 0
0 0 0 0 0 0 0 0 0 0 0 0 0 0 0 0 0 0 0 0 0 0 0 0 0 0 0 0 0 0 0 0 0 0 0 0 0 0 0 0 0 0 0 0 0 0 0 0 0 0 0 0 0 0
0 0 0 0 0 0 0 0 0 0 0 0 0 0 0 0 0 0 0 0 0 0 0 0 0 0 0 0 0 0 0 0 0 0 0 0 0 0 0 0 0 0 0 0 0 0 0 0 0 0 0 0 0 0
0 0 0 0 0 0 0 0 0 0 0 0 0 0 0 0 0 0 0 0 0 0 0 0 0 0 0 0 0 0 0 0 0 0 0 0 0 0 0 0 0 0 0 0 0 0 0 0 0 0 0 0 0 0
Wind_Speed_500mb
49 48 45 43 39 36 34 30 27 24 21 19 17 15 16 14 12 11 15 15 13 11 18 13 14 18 14 15 12 12 11 11 14 10 9 9 9 10 9 18 11 18 12 11 14 13 17 16 20 13 11 15 22 28
53 52 49 46 44 40 38 36 32 29 23 20 19 18 16 16 15 11 5 16 19 16 14 19 19 26 25 16 12 19 6 5 16 9 9 7 7 7 14 12 19 11 19 9 18 13 21 35 38 32 37 40 41 42
59 57 56 51 48 44 40 37 35 33 28 23 19 18 17 15 16 17 11 13 9 13 25 27 22 28 39 39 33 17 20 18 13 11 7 7 15 13 15 20 31 31 35 21 16 33 55 55 56 63 56 53 51 44
66 63 60 57 53 50 47 41 38 37 34 27 21 18 16 14 13 16 10 16 10 8 9 7 21 23 28 35 39 41 17 16 10 12 16 8 9 24 18 25 25 25 25 23 37 60 67 57 45 44 45 47 47 43
76 73 66 63 59 55 50 46 41 39 38 33 26 20 15 14 13 12 15 18 22 10 8 10 16 21 21 24 24 25 26 24 21 12 10 9 23 26 37 33 29 48 50 26 28 54 34 33 33 33 32 34 36 37
74 80 75 69 64 60 54 50 45 43 40 37 31 25 19 13 10 6 6 12 22 18 9 7 8 14 16 17 21 23 22 24 27 14 14 18 23 9 10 16 29 53 52 56 72 75 54 51 49 46 48 45 46 45
60 72 81 79 72 66 61 55 50 46 43 40 35 29 23 18 13 12 6 7 4 13 7 12 9 7 14 14 17 18 20 20 22 13 16 26 22 17 10 26 34 43 41 42 49 58 67 60 53 40 36 38 36 38
55 58 70 80 80 73 68 62 55 49 46 41 37 33 32 28 25 28 26 25 16 5 10 8 6 10 22 14 13 19 15 20 15 13 13 17 18 19 14 47 46 52 49 60 62 59 65 62 55 52 47 43 46 44
50 52 58 65 78 80 75 69 61 54 48 43 40 38 30 30 20 26 33 32 32 22 8 10 7 6 17 16 11 15 16 9 14 15 15 19 10 17 42 43 48 43 38 45 39 37 39 42 44 43 40 39 43 43
47 48 49 57 62 76 79 76 71 63 54 51 48 26 15 19 35 20 13 12 19 24 22 13 19 9 24 21 19 15 12 7 7 14 14 10 16 89 64 68 63 63 52 49 48 49 40 40 35 30 29 30 33 34
44 42 47 47 53 61 75 76 75 68 62 67 40 29 24 24 22 15 11 16 18 10 22 29 51 25 22 14 12 20 9 9 8 11 13 11 11 36 31 32 31 28 29 29 33 36 34 33 31 27 27 27 27 28
37 41 41 43 43 50 59 72 70 76 83 75 38 39 37 20 15 13 11 13 13 13 25 26 37 34 16 14 13 15 9 11 13 19 8 9 20 80 42 32 20 22 19 15 12 17 21 25 26 27 27 28 27 28
35 38 41 40 41 37 47 56 69 66 66 65 31 23 19 20 15 20 22 10 10 14 28 25 14 24 14 16 11 12 11 11 3 7 10 12 51 53 26 25 31 29 27 24 18 16 16 17 18 21 26 26 29 32
34 35 38 42 41 38 35 49 51 74 56 25 27 17 15 14 15 16 14 24 24 30 41 41 31 16 15 17 13 10 10 7 9 10 13 19 25 19 6 4 6 7 6 5 6 9 11 14 17 22 26 29 32 37
33 32 34 36 41 42 37 38 47 80 44 17 19 16 20 25 25 20 44 46 47 34 45 38 14 18 10 9 11 10 11 13 14 10 9 7 4 4 5 9 12 14 15 13 16 18 22 29 36 43 42 40 40 42
30 31 37 33 33 38 38 35 50 54 32 14 15 9 14 18 35 18 30 41 36 40 38 17 11 8 10 9 17 19 12 16 8 14 10 2 4 9 10 12 13 15 20 24 26 29 32 33 34 34 34 36 32 32
26 30 29 27 27 24 32 38 36 19 18 13 13 23 16 7 16 26 35 34 41 51 14 12 17 20 12 10 14 13 12 9 8 8 7 6 8 8 9 17 24 26 28 31 35 37 38 37 36 37 41 38 28 26
35 26 25 27 31 29 32 25 15 14 15 18 11 28 21 15 11 12 25 35 39 36 36 10 10 19 15 17 17 18 33 21 8 10 9 11 20 25 28 34 34 34 37 40 40 44 44 42 41 37 35 31 28 19
29 28 22 24 22 25 15 19 14 9 20 10 20 17 27 27 28 25 23 24 30 19 7 7 8 8 15 6 9 12 6 3 8 21 41 43 34 28 31 36 39 42 42 42 40 36 34 36 38 42 44 39 32 29
41 29 25 19 22 14 8 9 14 11 12 17 18 24 23 20 28 37 42 38 37 21 14 8 7 10 7 10 19 11 11 17 26 26 35 34 31 30 29 33 37 37 37 33 32 43 47 44 40 31 23 17 16 18
34 35 41 34 23 22 7 7 11 10 7 15 20 24 11 19 26 26 30 49 42 18 14 31 41 40 34 35 42 43 40 38 37 35 40 42 36 36 39 31 26 39 43 48 42 34 19 7 5 8 11 13 17 20
32 32 22 28 12 9 11 14 11 5 8 6 14 26 20 24 29 31 25 34 19 37 35 42 48 48 45 39 33 29 27 28 31 36 40 37 32 33 44 46 43 37 22 5 4 7 6 8 10 12 16 23 25 24
34 27 16 14 11 10 8 13 11 9 8 11 16 10 10 14 23 31 14 19 23 29 27 32 38 36 35 38 37 39 43 43 34 31 34 36 35 26 15 4 5 11 14 12 7 6 9 14 18 21 21 23 27 31
34 24 13 15 19 8 8 10 14 16 11 7 8 9 10 14 16 12 8 10 9 5 2 5 12 16 14 24 23 22 18 15 10 2 5 10 19 22 19 18 15 13 11 10 11 13 15 16 20 22 26 30 32 35
15 16 13 12 14 12 10 8 14 13 15 17 24 14 6 7 5 6 7 12 14 7 6 6 6 9 17 15 14 19 24 24 23 30 27 20 18 18 16 16 15 15 14 13 15 18 20 25 27 28 32 32 34 36
13 16 20 19 12 11 13 9 13 15 12 14 13 11 17 8 8 7 7 22 19 15 17 16 16 20 21 20 18 19 19 18 15 19 18 14 14 13 11 11 9 11 20 20 21 23 24 25 26 29 31 33 35 39
11 12 15 15 12 14 9 15 12 11 11 10 8 12 10 9 11 8 15 18 19 19 20 18 16 15 14 14 12 9 10 11 12 13 11 9 12 12 10 10 9 13 18 20 24 27 29 30 31 32 33 35 34 37
13 25 16 25 21 23 7 6 10 9 11 9 8 14 9 2 5 7 9 21 23 22 15 13 12 10 9 9 9 9 10 11 11 10 11 11 9 10 13 13 15 18 19 22 25 26 27 30 33 36 37 39 41 41
13 22 23 14 13 14 13 9 7 9 8 10 6 7 7 6 7 12 19 23 26 17 14 11 8 8 9 10 9 9 10 10 8 8 9 6 4 10 14 15 16 19 23 24 23 25 28 32 36 37 37 38 39 40
18 31 18 19 11 13 18 16 18 18 10 6 7 9 8 7 10 21 18 18 17 18 15 11 7 10 10 9 9 8 8 8 9 11 6 3 4 10 13 17 20 22 24 24 26 29 30 32 33 30 32 36 37 40
21 30 15 20 20 30 23 20 15 6 6 5 6 7 12 10 13 23 25 25 22 19 14 10 8 10 12 12 11 9 6 6 5 3 1 2 6 12 17 20 22 24 25 27 30 29 30 31 30 32 34 37 38 39
27 24 20 16 18 20 20 15 18 20 20 15 12 12 11 11 12 14 24 26 24 20 18 15 12 14 16 13 11 11 10 8 6 3 2 7 11 14 18 20 21 22 25 28 30 29 28 31 32 33 35 37 39 39
16 19 18 19 9 13 17 18 15 14 13 25 26 27 25 21 10 23 20 36 30 24 24 23 21 17 18 16 14 11 8 5 2 1 6 9 12 14 17 20 22 24 27 30 32 31 30 31 31 32 33 35 38 38
Wind_Direction_500mb
247 250 251 256 258 260 264 267 269 272 283 289 297 289 275 261 249 232 249 228 198 249 254 263 236 228 230 235 225 134 163 207 188 225 219 233 247 234 266 250 187 201 197 204 215 229 264 174 149 216 311 287 285 291
247 247 249 252 253 254 256 258 259 258 262 277 291 299 286 262 253 240 249 255 235 238 255 258 236 233 224 227 227 182 228 161 210 207 239 265 236 243 255 262 188 238 216 260 214 221 244 199 239 248 275 281 292 299
248 248 247 246 250 253 253 251 249 250 250 258 275 294 298 280 252 243 235 256 264 271 279 252 262 252 240 231 220 229 229 235 213 229 246 250 251 271 258 254 251 227 255 247 263 249 260 272 270 265 269 272 276 276
245 246 247 246 246 247 248 248 245 245 245 247 258 276 290 297 268 244 232 251 232 265 271 223 251 252 245 229 226 219 242 223 221 226 229 236 243 251 257 263 269 265 272 247 262 269 273 271 269 276 272 271 268 272
241 244 243 246 244 243 244 245 242 239 239 241 243 257 275 293 297 267 253 248 229 228 288 272 288 255 252 235 216 219 221 222 229 224 227 237 258 267 268 263 252 249 248 245 253 261 276 281 288 290 281 272 267 267
239 238 241 241 241 241 239 241 240 236 234 236 238 243 255 269 297 343 258 277 234 220 268 281 263 233 231 217 211 212 212 219 224 213 246 244 240 238 266 266 256 246 252 246 255 265 278 284 284 282 282 279 273 271
242 239 236 238 238 237 236 236 238 236 231 229 233 236 243 252 254 243 213 218 197 177 247 286 237 205 202 188 199 208 209 212 218 227 240 245 227 203 257 252 250 258 264 270 264 269 272 273 279 283 280 278 278 273
251 245 239 235 235 234 233 232 231 233 229 226 227 231 239 242 249 258 256 239 231 226 239 260 224 194 181 190 195 203 207 202 221 226 233 239 243 226 257 252 261 261 264 265 266 264 266 276 276 275 276 274 276 273
251 252 244 239 233 231 229 229 227 226 224 220 222 230 243 244 242 236 255 256 234 215 236 225 235 202 179 189 177 180 199 214 214 224 222 196 222 229 241 259 264 266 262 272 275 268 271 274 274 272 270 269 269 270
252 250 253 243 238 230 227 224 223 220 213 209 213 207 211 196 236 243 249 210 206 203 219 230 238 218 174 178 189 168 191 227 215 223 189 224 250 250 257 262 270 275 274 274 271 268 266 268 270 272 269 268 268 272
247 249 249 252 243 235 227 223 218 216 208 197 195 196 197 190 188 203 225 199 199 224 208 207 218 206 207 181 180 204 192 210 241 186 206 215 248 265 263 259 262 270 275 274 264 260 256 256 263 270 271 269 270 273
251 245 245 246 251 240 229 220 216 214 207 196 190 174 167 179 191 201 198 192 203 218 183 207 215 210 157 174 197 183 218 195 242 153 232 249 246 263 273 282 259 282 278 264 266 269 265 259 260 268 272 274 277 279
257 248 243 238 242 244 232 220 213 216 203 186 186 174 173 187 206 200 189 184 198 195 179 173 151 161 150 181 197 193 217 220 179 223 233 230 251 269 282 283 287 280 270 275 285 281 280 283 284 286 287 290 297 295
259 250 244 238 236 236 234 217 208 210 188 181 170 195 200 189 229 201 200 191 196 186 174 171 159 167 163 172 178 208 212 170 232 232 236 252 270 290 318 339 357 356 347 335 355 2 355 342 332 328 326 322 315 312
254 250 243 239 233 231 228 218 200 200 195 194 191 206 212 228 214 218 215 210 200 179 165 163 162 170 164 188 202 184 186 229 225 226 236 104 33 55 55 29 31 25 7 6 5 2 353 345 338 330 323 309 300 299
250 252 245 240 236 232 225 216 191 206 203 219 219 244 246 230 225 201 195 198 180 171 160 166 154 187 202 212 195 204 210 216 226 221 243 226 85 72 53 47 40 15 357 349 342 338 332 324 313 306 305 307 303 302
229 235 246 234 219 213 217 204 199 203 217 214 211 235 260 328 251 191 211 202 183 173 180 162 186 196 174 220 204 198 219 243 209 194 157 110 99 67 2 333 325 322 320 320 321 321 318 315 310 307 306 306 300 305
225 236 234 223 209 215 206 209 214 213 225 223 209 217 215 213 240 231 229 218 184 195 208 198 206 204 204 211 214 219 234 238 204 208 123 23 336 318 308 309 316 319 319 317 315 313 312 314 313 311 310 305 308 292
220 229 221 225 206 196 204 207 217 243 211 198 221 225 216 218 219 222 225 213 211 215 235 205 223 217 235 350 36 37 36 66 49 335 321 315 309 304 307 307 306 306 305 305 304 303 307 304 291 292 293 282 273 266
211 215 206 202 205 211 234 230 199 231 200 206 214 215 209 224 225 217 214 216 209 208 210 216 239 216 235 265 308 260 248 280 297 293 296 299 302 304 302 302 302 303 303 305 306 304 304 288 280 285 293 300 310 316
221 232 210 202 209 220 252 242 229 228 225 222 205 198 193 218 213 205 214 219 219 216 223 236 252 263 268 276 284 285 288 287 287 294 299 304 303 300 298 299 305 309 300 303 298 291 283 278 330 3 352 340 330 335
212 201 170 177 186 212 252 237 243 273 214 244 203 207 227 228 231 226 231 214 222 244 248 254 257 263 269 271 279 285 295 295 292 289 292 296 301 300 300 299 298 294 288 270 129 104 68 19 352 341 345 351 345 324
199 209 178 169 194 226 239 213 225 219 227 200 181 207 213 211 223 222 221 226 232 235 236 244 248 254 267 280 283 283 278 281 284 280 282 286 293 293 288 295 119 110 98 85 64 12 348 342 352 348 333 331 325 322
187 169 167 188 208 222 183 221 209 225 215 224 217 219 211 204 181 198 227 171 148 145 181 252 259 268 262 266 266 271 282 284 273 213 107 133 123 107 102 98 90 79 62 24 4 355 345 339 333 331 330 329 327 324
167 174 188 197 205 211 215 214 206 212 218 208 227 235 211 187 210 224 206 138 135 125 98 69 87 139 135 123 107 115 120 110 110 115 109 104 99 91 70 47 39 37 23 13 1 349 351 340 335 333 334 332 328 325
213 171 192 197 187 210 205 213 208 217 213 207 208 207 201 205 217 211 129 141 139 128 122 113 109 105 104 110 105 104 98 97 97 101 96 101 90 76 70 70 53 13 358 350 339 335 338 336 335 335 334 331 328 328
208 182 188 206 199 207 251 243 220 206 212 214 180 174 183 206 213 109 133 121 139 139 126 110 103 109 107 98 92 105 109 121 132 117 109 83 71 68 61 43 11 345 337 330 335 345 342 337 337 335 334 333 332 329
212 182 174 188 202 219 257 259 202 217 213 199 190 197 200 264 83 97 116 164 158 132 120 114 118 117 117 116 103 93 106 111 106 88 76 63 53 35 19 2 342 338 333 336 346 348 342 338 338 337 332 331 334 334
180 177 180 177 188 214 226 229 240 228 242 207 216 172 115 92 119 137 148 154 152 142 141 133 111 107 119 128 129 126 129 109 147 129 114 96 72 340 352 344 342 344 347 348 346 341 338 338 337 336 336 333 330 330
175 175 181 171 191 222 225 222 238 239 252 270 119 109 106 117 169 167 159 158 156 166 174 172 155 150 150 138 136 132 135 139 153 147 136 118 331 334 345 352 352 349 347 346 342 340 342 338 340 338 332 331 332 327
172 184 204 205 224 233 233 221 221 216 189 175 195 211 138 159 170 177 178 186 188 182 178 175 174 174 170 162 158 155 154 157 154 155 191 303 346 3 355 350 348 346 346 345 341 337 334 336 335 334 333 333 331 330
182 191 204 207 226 222 230 221 226 233 228 218 188 153 156 161 171 193 197 190 188 192 198 195 190 200 200 196 187 184 189 184 190 192 13 12 8 356 348 344 345 344 343 343 341 337 332 333 331 331 330 331 331 333
193 199 223 234 186 181 194 205 213 215 220 227 229 213 208 206 174 208 203 197 192 202 202 204 211 209 201 201 197 192 190 186 190 351 359 355 350 344 341 344 346 345 346 345 341 337 332 329 329 328 329 330 332 335
Wind_Speed_850mb
49 48 45 43 39 36 34 30 27 24 21 19 17 15 16 14 12 11 15 15 13 11 18 13 14 18 14 15 12 12 11 11 14 10 9 9 9 10 9 18 11 18 12 11 14 13 17 16 20 13 11 15 22 28
53 52 49 46 44 40 38 36 32 29 23 20 19 18 16 16 15 11 5 16 19 16 14 19 19 26 25 16 12 19 6 5 16 9 9 7 7 7 14 12 19 11 19 9 18 13 21 35 38 32 37 40 41 42
59 57 56 51 48 44 40 37 35 33 28 23 19 18 17 15 16 17 11 13 9 13 25 27 22 28 39 39 33 17 20 18 13 11 7 7 15 13 15 20 31 31 35 21 16 33 55 55 56 63 56 53 51 44
66 63 60 57 53 50 47 41 38 37 34 27 21 18 16 14 13 16 10 16 10 8 9 7 21 23 28 35 39 41 17 16 10 12 16 8 9 24 18 25 25 25 25 23 37 60 67 57 45 44 45 47 47 43
76 73 66 63 59 55 50 46 41 39 38 33 26 20 15 14 13 12 15 18 22 10 8 10 16 21 21 24 24 25 26 24 21 12 10 9 23 26 37 33 29 48 50 26 28 54 34 33 33 33 32 34 36 37
74 80 75 69 64 60 54 50 45 43 40 37 31 25 19 13 10 6 6 12 22 18 9 7 8 14 16 17 21 23 22 24 27 14 14 18 23 9 10 16 29 53 52 56 72 75 54 51 49 46 48 45 46 45
60 72 81 79 72 66 61 55 50 46 43 40 35 29 23 18 13 12 6 7 4 13 7 12 9 7 14 14 17 18 20 20 22 13 16 26 22 17 10 26 34 43 41 42 49 58 67 60 53 40 36 38 36 38
55 58 70 80 80 73 68 62 55 49 46 41 37 33 32 28 25 28 26 25 16 5 10 8 6 10 22 14 13 19 15 20 15 13 13 17 18 19 14 47 46 52 49 60 62 59 65 62 55 52 47 43 46 44
50 52 58 65 78 80 75 69 61 54 48 43 40 38 30 30 20 26 33 32 32 22 8 10 7 6 17 16 11 15 16 9 14 15 15 19 10 17 42 43 48 43 38 45 39 37 39 42 44 43 40 39 43 43
47 48 49 57 62 76 79 76 71 63 54 51 48 26 15 19 35 20 13 12 19 24 22 13 19 9 24 21 19 15 12 7 7 14 14 10 16 89 64 68 63 63 52 49 48 49 40 40 35 30 29 30 33 34
44 42 47 47 53 61 75 76 75 68 62 67 40 29 24 24 22 15 11 16 18 10 22 29 51 25 22 14 12 20 9 9 8 11 13 11 11 36 31 32 31 28 29 29 33 36 34 33 31 27 27 27 27 28
37 41 41 43 43 50 59 72 70 76 83 75 38 39 37 20 15 13 11 13 13 13 25 26 37 34 16 14 13 15 9 11 13 19 8 9 20 80 42 32 20 22 19 15 12 17 21 25 26 27 27 28 27 28
35 38 41 40 41 37 47 56 69 66 66 65 31 23 19 20 15 20 22 10 10 14 28 25 14 24 14 16 11 12 11 11 3 7 10 12 51 53 26 25 31 29 27 24 18 16 16 17 18 21 26 26 29 32
34 35 38 42 41 38 35 49 51 74 56 25 27 17 15 14 15 16 14 24 24 30 41 41 31 16 15 17 13 10 10 7 9 10 13 19 25 19 6 4 6 7 6 5 6 9 11 14 17 22 26 29 32 37
33 32 34 36 41 42 37 38 47 80 44 17 19 16 20 25 25 20 44 46 47 34 45 38 14 18 10 9 11 10 11 13 14 10 9 7 4 4 5 9 12 14 15 13 16 18 22 29 36 43 42 40 40 42
30 31 37 33 33 38 38 35 50 54 32 14 15 9 14 18 35 18 30 41 36 40 38 17 11 8 10 9 17 19 12 16 8 14 10 2 4 9 10 12 13 15 20 24 26 29 32 33 34 34 34 36 32 32
26 30 29 27 27 24 32 38 36 19 18 13 13 23 16 7 16 26 35 34 41 51 14 12 17 20 12 10 14 13 12 9 8 8 7 6 8 8 9 17 24 26 28 31 35 37 38 37 36 37 41 38 28 26
35 26 25 27 31 29 32 25 15 14 15 18 11 28 21 15 11 12 25 35 39 36 36 10 10 19 15 17 17 18 33 21 8 10 9 11 20 25 28 34 34 34 37 40 40 44 44 42 41 37 35 31 28 19
29 28 22 24 22 25 15 19 14 9 20 10 20 17 27 27 28 25 23 24 30 19 7 7 8 8 15 6 9 12 6 3 8 21 41 43 34 28 31 36 39 42 42 42 40 36 34 36 38 42 44 39 32 29
41 29 25 19 22 14 8 9 14 11 12 17 18 24 23 20 28 37 42 38 37 21 14 8 7 10 7 10 19 11 11 17 26 26 35 34 31 30 29 33 37 37 37 33 32 43 47 44 40 31 23 17 16 18
34 35 41 34 23 22 7 7 11 10 7 15 20 24 11 19 26 26 30 49 42 18 14 31 41 40 34 35 42 43 40 38 37 35 40 42 36 36 39 31 26 39 43 48 42 34 19 7 5 8 11 13 17 20
32 32 22 28 12 9 11 14 11 5 8 6 14 26 20 24 29 31 25 34 19 37 35 42 48 48 45 39 33 29 27 28 31 36 40 37 32 33 44 46 43 37 22 5 4 7 6 8 10 12 16 23 25 24
34 27 16 14 11 10 8 13 11 9 8 11 16 10 10 14 23 31 14 19 23 29 27 32 38 36 35 38 37 39 43 43 34 31 34 36 35 26 15 4 5 11 14 12 7 6 9 14 18 21 21 23 27 31
34 24 13 15 19 8 8 10 14 16 11 7 8 9 10 14 16 12 8 10 9 5 2 5 12 16 14 24 23 22 18 15 10 2 5 10 19 22 19 18 15 13 11 10 11 13 15 16 20 22 26 30 32 35
15 16 13 12 14 12 10 8 14 13 15 17 24 14 6 7 5 6 7 12 14 7 6 6 6 9 17 15 14 19 24 24 23 30 27 20 18 18 16 16 15 15 14 13 15 18 20 25 27 28 32 32 34 36
13 16 20 19 12 11 13 9 13 15 12 14 13 11 17 8 8 7 7 22 19 15 17 16 16 20 21 20 18 19 19 18 15 19 18 14 14 13 11 11 9 11 20 20 21 23 24 25 26 29 31 33 35 39
11 12 15 15 12 14 9 15 12 11 11 10 8 12 10 9 11 8 15 18 19 19 20 18 16 15 14 14 12 9 10 11 12 13 11 9 12 12 10 10 9 13 18 20 24 27 29 30 31 32 33 35 34 37
13 25 16 25 21 23 7 6 10 9 11 9 8 14 9 2 5 7 9 21 23 22 15 13 12 10 9 9 9 9 10 11 11 10 11 11 9 10 13 13 15 18 19 22 25 26 27 30 33 36 37 39 41 41
13 22 23 14 13 14 13 9 7 9 8 10 6 7 7 6 7 12 19 23 26 17 14 11 8 8 9 10 9 9 10 10 8 8 9 6 4 10 14 15 16 19 23 24 23 25 28 32 36 37 37 38 39 40
18 31 18 19 11 13 18 16 18 18 10 6 7 9 8 7 10 21 18 18 17 18 15 11 7 10 10 9 9 8 8 8 9 11 6 3 4 10 13 17 20 22 24 24 26 29 30 32 33 30 32 36 37 40
21 30 15 20 20 30 23 20 15 6 6 5 6 7 12 10 13 23 25 25 22 19 14 10 8 10 12 12 11 9 6 6 5 3 1 2 6 12 17 20 22 24 25 27 30 29 30 31 30 32 34 37 38 39
27 24 20 16 18 20 20 15 18 20 20 15 12 12 11 11 12 14 24 26 24 20 18 15 12 14 16 13 11 11 10 8 6 3 2 7 11 14 18 20 21 22 25 28 30 29 28 31 32 33 35 37 39 39
16 19 18 19 9 13 17 18 15 14 13 25 26 27 25 21 10 23 20 36 30 24 24 23 21 17 18 16 14 11 8 5 2 1 6 9 12 14 17 20 22 24 27 30 32 31 30 31 31 32 33 35 38 38
Wind_Direction_850mb
247 250 251 256 258 260 264 267 269 272 283 289 297 289 275 261 249 232 249 228 198 249 254 263 236 228 230 235 225 134 163 207 188 225 219 233 247 234 266 250 187 201 197 204 215 229 264 174 149 216 311 287 285 291
247 247 249 252 253 254 256 258 259 258 262 277 291 299 286 262 253 240 249 255 235 238 255 258 236 233 224 227 227 182 228 161 210 207 239 265 236 243 255 262 188 238 216 260 214 221 244 199 239 248 275 281 292 299
248 248 247 246 250 253 253 251 249 250 250 258 275 294 298 280 252 243 235 256 264 271 279 252 262 252 240 231 220 229 229 235 213 229 246 250 251 271 258 254 251 227 255 247 263 249 260 272 270 265 269 272 276 276
245 246 247 246 246 247 248 248 245 245 245 247 258 276 290 297 268 244 232 251 232 265 271 223 251 252 245 229 226 219 242 223 221 226 229 236 243 251 257 263 269 265 272 247 262 269 273 271 269 276 272 271 268 272
241 244 243 246 244 243 244 245 242 239 239 241 243 257 275 293 297 267 253 248 229 228 288 272 288 255 252 235 216 219 221 222 229 224 227 237 258 267 268 263 252 249 248 245 253 261 276 281 288 290 281 272 267 267
239 238 241 241 241 241 239 241 240 236 234 236 238 243 255 269 297 343 258 277 234 220 268 281 263 233 231 217 211 212 212 219 224 213 246 244 240 238 266 266 256 246 252 246 255 265 278 284 284 282 282 279 273 271
242 239 236 238 238 237 236 236 238 236 231 229 233 236 243 252 254 243 213 218 197 177 247 286 237 205 202 188 199 208 209 212 218 227 240 245 227 203 257 252 250 258 264 270 264 269 272 273 279 283 280 278 278 273
251 245 239 235 235 234 233 232 231 233 229 226 227 231 239 242 249 258 256 239 231 226 239 260 224 194 181 190 195 203 207 202 221 226 233 239 243 226 257 252 261 261 264 265 266 264 266 276 276 275 276 274 276 273
251 252 244 239 233 231 229 229 227 226 224 220 222 230 243 244 242 236 255 256 234 215 236 225 235 202 179 189 177 180 199 214 214 224 222 196 222 229 241 259 264 266 262 272 275 268 271 274 274 272 270 269 269 270
252 250 253 243 238 230 227 224 223 220 213 209 213 207 211 196 236 243 249 210 206 203 219 230 238 218 174 178 189 168 191 227 215 223 189 224 250 250 257 262 270 275 274 274 271 268 266 268 270 272 269 268 268 272
247 249 249 252 243 235 227 223 218 216 208 197 195 196 197 190 188 203 225 199 199 224 208 207 218 206 207 181 180 204 192 210 241 186 206 215 248 265 263 259 262 270 275 274 264 260 256 256 263 270 271 269 270 273
251 245 245 246 251 240 229 220 216 214 207 196 190 174 167 179 191 201 198 192 203 218 183 207 215 210 157 174 197 183 218 195 242 153 232 249 246 263 273 282 259 282 278 264 266 269 265 259 260 268 272 274 277 279
257 248 243 238 242 244 232 220 213 216 203 186 186 174 173 187 206 200 189 184 198 195 179 173 151 161 150 181 197 193 217 220 179 223 233 230 251 269 282 283 287 280 270 275 285 281 280 283 284 286 287 290 297 295
259 250 244 238 236 236 234 217 208 210 188 181 170 195 200 189 229 201 200 191 196 186 174 171 159 167 163 172 178 208 212 170 232 232 236 252 270 290 318 339 357 356 347 335 355 2 355 342 332 328 326 322 315 312
254 250 243 239 233 231 228 218 200 200 195 194 191 206 212 228 214 218 215 210 200 179 165 163 162 170 164 188 202 184 186 229 225 226 236 104 33 55 55 29 31 25 7 6 5 2 353 345 338 330 323 309 300 299
250 252 245 240 236 232 225 216 191 206 203 219 219 244 246 230 225 201 195 198 180 171 160 166 154 187 202 212 195 204 210 216 226 221 243 226 85 72 53 47 40 15 357 349 342 338 332 324 313 306 305 307 303 302
229 235 246 234 219 213 217 204 199 203 217 214 211 235 260 328 251 191 211 202 183 173 180 162 186 196 174 220 204 198 219 243 209 194 157 110 99 67 2 333 325 322 320 320 321 321 318 315 310 307 306 306 300 305
225 236 234 223 209 215 206 209 214 213 225 223 209 217 215 213 240 231 229 218 184 195 208 198 206 204 204 211 214 219 234 238 204 208 123 23 336 318 308 309 316 319 319 317 315 313 312 314 313 311 310 305 308 292
220 229 221 225 206 196 204 207 217 243 211 198 221 225 216 218 219 222 225 213 211 215 235 205 223 217 235 350 36 37 36 66 49 335 321 315 309 304 307 307 306 306 305 305 304 303 307 304 291 292 293 282 273 266
211 215 206 202 205 211 234 230 199 231 200 206 214 215 209 224 225 217 214 216 209 208 210 216 239 216 235 265 308 260 248 280 297 293 296 299 302 304 302 302 302 303 303 305 306 304 304 288 280 285 293 300 310 316
221 232 210 202 209 220 252 242 229 228 225 222 205 198 193 218 213 205 214 219 219 216 223 236 252 263 268 276 284 285 288 287 287 294 299 304 303 300 298 299 305 309 300 303 298 291 283 278 330 3 352 340 330 335
212 201 170 177 186 212 252 237 243 273 214 244 203 207 227 228 231 226 231 214 222 244 248 254 257 263 269 271 279 285 295 295 292 289 292 296 301 300 300 299 298 294 288 270 129 104 68 19 352 341 345 351 345 324
199 209 178 169 194 226 239 213 225 219 227 200 181 207 213 211 223 222 221 226 232 235 236 244 248 254 267 280 283 283 278 281 284 280 282 286 293 293 288 295 119 110 98 85 64 12 348 342 352 348 333 331 325 322
187 169 167 188 208 222 183 221 209 225 215 224 217 219 211 204 181 198 227 171 148 145 181 252 259 268 262 266 266 271 282 284 273 213 107 133 123 107 102 98 90 79 62 24 4 355 345 339 333 331 330 329 327 324
167 174 188 197 205 211 215 214 206 212 218 208 227 235 211 187 210 224 206 138 135 125 98 69 87 139 135 123 107 115 120 110 110 115 109 104 99 91 70 47 39 37 23 13 1 349 351 340 335 333 334 332 328 325
213 171 192 197 187 210 205 213 208 217 213 207 208 207 201 205 217 211 129 141 139 128 122 113 109 105 104 110 105 104 98 97 97 101 96 101 90 76 70 70 53 13 358 350 339 335 338 336 335 335 334 331 328 328
208 182 188 206 199 207 251 243 220 206 212 214 180 174 183 206 213 109 133 121 139 139 126 110 103 109 107 98 92 105 109 121 132 117 109 83 71 68 61 43 11 345 337 330 335 345 342 337 337 335 334 333 332 329
212 182 174 188 202 219 257 259 202 217 213 199 190 197 200 264 83 97 116 164 158 132 120 114 118 117 117 116 103 93 106 111 106 88 76 63 53 35 19 2 342 338 333 336 346 348 342 338 338 337 332 331 334 334
180 177 180 177 188 214 226 229 240 228 242 207 216 172 115 92 119 137 148 154 152 142 141 133 111 107 119 128 129 126 129 109 147 129 114 96 72 340 352 344 342 344 347 348 346 341 338 338 337 336 336 333 330 330
175 175 181 171 191 222 225 222 238 239 252 270 119 109 106 117 169 167 159 158 156 166 174 172 155 150 150 138 136 132 135 139 153 147 136 118 331 334 345 352 352 349 347 346 342 340 342 338 340 338 332 331 332 327
172 184 204 205 224 233 233 221 221 216 189 175 195 211 138 159 170 177 178 186 188 182 178 175 174 174 170 162 158 155 154 157 154 155 191 303 346 3 355 350 348 346 346 345 341 337 334 336 335 334 333 333 331 330
182 191 204 207 226 222 230 221 226 233 228 218 188 153 156 161 171 193 197 190 188 192 198 195 190 200 200 196 187 184 189 184 190 192 13 12 8 356 348 344 345 344 343 343 341 337 332 333 331 331 330 331 331 333
193 199 223 234 186 181 194 205 213 215 220 227 229 213 208 206 174 208 203 197 192 202 202 204 211 209 201 201 197 192 190 186 190 351 359 355 350 344 341 344 346 345 346 345 341 337 332 329 329 328 329 330 332 335